When you browse on this site, cookies collect data to enhance your experience and personalize the content and advertising you see.
Visit our Privacy Policy to learn more. By continuing to use the site, you agree to this use of cookies and data.
  • In Romania
  • List of Countries
  • For 7 days
  • Water Temperature
  • Weather Map
  • Weather Widgets
  • user-avatar
    Login

    Hourly Weather Búðardalur

    Today, 22 February, Saturday

    Time Temperature Precipitation Wind Pressure Humidity
    00:00 -6°C° 0.1 mm 9 mps 727 mmHg 90%
    01:00 -6°C° 0.1 mm 9 mps 727 mmHg 90%
    02:00 -6°C° 0.1 mm 9 mps 728 mmHg 89%
    03:00 -6°C° 0 mm 8 mps 729 mmHg 89%
    04:00 -6°C° 0 mm 8 mps 730 mmHg 89%
    05:00 -7°C° 0 mm 7 mps 731 mmHg 89%
    06:00 -6°C° 0 mm 6 mps 731 mmHg 88%
    07:00 -6°C° 0 mm 5 mps 732 mmHg 88%
    08:00 -7°C° 0 mm 4 mps 733 mmHg 88%
    09:00 -7°C° 0 mm 4 mps 734 mmHg 88%
    10:00 -5°C° 0 mm 3 mps 735 mmHg 88%
    11:00 -5°C° 0 mm 3 mps 736 mmHg 88%
    12:00 -5°C° 0 mm 3 mps 737 mmHg 87%
    13:00 -4°C° 0 mm 2 mps 738 mmHg 87%
    14:00 -4°C° 0 mm 2 mps 739 mmHg 86%
    15:00 -2°C° 0 mm 1 mps 740 mmHg 86%
    16:00 -3°C° 0 mm 1 mps 740 mmHg 85%
    17:00 -4°C° 0 mm 0 mps 741 mmHg 85%
    18:00 -4°C° 0 mm 1 mps 741 mmHg 85%
    19:00 -4°C° 0 mm 1 mps 742 mmHg 86%
    20:00 -7°C° 0 mm 2 mps 742 mmHg 86%
    21:00 -7°C° 0 mm 2 mps 742 mmHg 87%
    22:00 -7°C° 0 mm 2 mps 742 mmHg 88%
    23:00 -8°C° 0 mm 3 mps 742 mmHg 88%

    Tomorrow, 23 February, Sunday

    Time Temperature Precipitation Wind Pressure Humidity
    00:00 -8°C° 0.3 mm 3 mps 742 mmHg 90%
    01:00 -7°C° 0.3 mm 3 mps 742 mmHg 91%
    02:00 -6°C° 0.3 mm 3 mps 742 mmHg 92%
    03:00 -7°C° 0.2 mm 4 mps 742 mmHg 91%
    04:00 -7°C° 0.2 mm 4 mps 742 mmHg 90%
    05:00 -5°C° 0.2 mm 4 mps 742 mmHg 90%
    06:00 -6°C° 0.1 mm 5 mps 743 mmHg 85%
    07:00 -6°C° 0.1 mm 6 mps 744 mmHg 80%
    08:00 -7°C° 0.1 mm 8 mps 744 mmHg 76%
    09:00 -8°C° 0.1 mm 9 mps 745 mmHg 79%
    10:00 -8°C° 0.1 mm 10 mps 746 mmHg 82%
    11:00 -8°C° 0.1 mm 11 mps 747 mmHg 85%
    12:00 -8°C° 0.1 mm 11 mps 748 mmHg 82%
    13:00 -8°C° 0.1 mm 10 mps 748 mmHg 78%
    14:00 -8°C° 0.1 mm 10 mps 749 mmHg 75%
    15:00 -7°C° 0 mm 8 mps 749 mmHg 75%
    16:00 -6°C° 0 mm 6 mps 750 mmHg 76%
    17:00 -7°C° 0 mm 4 mps 750 mmHg 76%
    18:00 -5°C° 0.5 mm 4 mps 750 mmHg 83%
    19:00 -4°C° 0.5 mm 4 mps 750 mmHg 89%
    20:00 -4°C° 0.5 mm 4 mps 750 mmHg 95%
    21:00 -4°C° 0.6 mm 5 mps 750 mmHg 94%
    22:00 -4°C° 0.6 mm 5 mps 749 mmHg 93%
    23:00 -2°C° 0.6 mm 5 mps 749 mmHg 93%

    Day after tomorrow, 24 February, Monday

    Time Temperature Precipitation Wind Pressure Humidity
    00:00 -2°C° 0.3 mm 5 mps 749 mmHg 93%
    01:00 -2°C° 0.3 mm 4 mps 748 mmHg 94%
    02:00 -2°C° 0.3 mm 4 mps 748 mmHg 94%
    03:00 -1°C° 0.7 mm 3 mps 747 mmHg 95%
    04:00 -1°C° 0.7 mm 3 mps 747 mmHg 96%
    05:00 -1°C° 0.7 mm 3 mps 746 mmHg 96%
    06:00 -1°C° 0.5 mm 3 mps 746 mmHg 96%
    07:00 -1°C° 0.5 mm 3 mps 745 mmHg 96%
    08:00 -2°C° 0.5 mm 3 mps 745 mmHg 96%
    09:00 -1°C° 0.8 mm 3 mps 744 mmHg 96%
    10:00 -1°C° 0.8 mm 3 mps 744 mmHg 96%
    11:00 -1°C° 0.8 mm 3 mps 743 mmHg 96%
    12:00 -1°C° 0.6 mm 3 mps 743 mmHg 95%
    13:00 -1°C° 0.6 mm 3 mps 742 mmHg 93%
    14:00 0°C° 0.6 mm 3 mps 742 mmHg 91%
    15:00 -1°C° 0.1 mm 3 mps 742 mmHg 92%
    16:00 -2°C° 0.1 mm 2 mps 741 mmHg 93%
    17:00 -2°C° 0.1 mm 2 mps 741 mmHg 94%
    18:00 -2°C° 0.4 mm 2 mps 741 mmHg 95%
    19:00 -2°C° 0.4 mm 2 mps 741 mmHg 95%
    20:00 0°C° 0.4 mm 1 mps 740 mmHg 95%
    21:00 0°C° 0.2 mm 1 mps 740 mmHg 94%
    22:00 -3°C° 0.2 mm 2 mps 740 mmHg 94%
    23:00 -3°C° 0.2 mm 2 mps 740 mmHg 93%

    25 February, Tuesday

    Time Temperature Precipitation Wind Pressure Humidity
    00:00 -3°C° 0.1 mm 2 mps 740 mmHg 93%
    01:00 -3°C° 0.1 mm 2 mps 740 mmHg 92%
    02:00 -4°C° 0.1 mm 2 mps 740 mmHg 92%
    03:00 -4°C° 0 mm 2 mps 740 mmHg 91%
    04:00 -4°C° 0 mm 2 mps 740 mmHg 90%
    05:00 -4°C° 0 mm 2 mps 740 mmHg 89%
    06:00 -5°C° 0 mm 2 mps 740 mmHg 88%
    07:00 -5°C° 0 mm 2 mps 740 mmHg 87%
    08:00 -5°C° 0 mm 2 mps 740 mmHg 86%
    09:00 -5°C° 0 mm 2 mps 741 mmHg 86%
    10:00 -2°C° 0 mm 1 mps 741 mmHg 86%
    11:00 -2°C° 0 mm 1 mps 741 mmHg 85%
    12:00 -2°C° 0 mm 1 mps 741 mmHg 85%
    13:00 -2°C° 0 mm 1 mps 742 mmHg 84%
    14:00 -2°C° 0 mm 1 mps 742 mmHg 83%
    15:00 -3°C° 0 mm 1 mps 742 mmHg 83%
    16:00 -4°C° 0 mm 1 mps 742 mmHg 82%
    17:00 -6°C° 0 mm 1 mps 742 mmHg 81%
    18:00 -6°C° 0 mm 1 mps 743 mmHg 81%
    19:00 -6°C° 0 mm 1 mps 743 mmHg 80%
    20:00 -8°C° 0 mm 2 mps 743 mmHg 79%
    21:00 -8°C° 0 mm 2 mps 744 mmHg 81%
    22:00 -8°C° 0 mm 2 mps 744 mmHg 83%
    23:00 -9°C° 0 mm 3 mps 744 mmHg 84%

    26 February, Wednesday

    Time Temperature Precipitation Wind Pressure Humidity
    00:00 -10°C° 0 mm 4 mps 744 mmHg 87%
    01:00 -10°C° 0 mm 5 mps 745 mmHg 90%
    02:00 -9°C° 0 mm 6 mps 745 mmHg 92%
    03:00 -9°C° 0.1 mm 7 mps 745 mmHg 91%
    04:00 -10°C° 0.1 mm 8 mps 746 mmHg 89%
    05:00 -10°C° 0.1 mm 10 mps 746 mmHg 88%
    06:00 -10°C° 0 mm 10 mps 746 mmHg 88%
    07:00 -10°C° 0 mm 9 mps 747 mmHg 87%
    08:00 -10°C° 0 mm 9 mps 747 mmHg 87%
    09:00 -10°C° 0 mm 9 mps 748 mmHg 86%
    10:00 -9°C° 0 mm 9 mps 748 mmHg 85%
    11:00 -9°C° 0 mm 9 mps 748 mmHg 84%
    12:00 -9°C° 0 mm 9 mps 749 mmHg 84%
    13:00 -9°C° 0 mm 10 mps 749 mmHg 83%
    14:00 -9°C° 0 mm 10 mps 749 mmHg 83%
    15:00 -9°C° 0 mm 10 mps 750 mmHg 83%
    16:00 -10°C° 0 mm 10 mps 750 mmHg 84%
    17:00 -10°C° 0 mm 9 mps 750 mmHg 84%
    18:00 -11°C° 0 mm 9 mps 750 mmHg 84%
    19:00 -12°C° 0 mm 8 mps 750 mmHg 83%
    20:00 -12°C° 0 mm 7 mps 750 mmHg 83%
    21:00 -12°C° 0 mm 6 mps 751 mmHg 83%
    22:00 -12°C° 0 mm 6 mps 751 mmHg 83%
    23:00 -12°C° 0 mm 5 mps 751 mmHg 83%

    27 February, Thursday

    Time Temperature Precipitation Wind Pressure Humidity
    00:00 -13°C° 0 mm 5 mps 751 mmHg 84%
    01:00 -14°C° 0 mm 5 mps 750 mmHg 84%
    02:00 -14°C° 0 mm 4 mps 750 mmHg 84%
    03:00 -14°C° 0 mm 5 mps 750 mmHg 84%
    04:00 -14°C° 0 mm 5 mps 750 mmHg 85%
    05:00 -14°C° 0 mm 5 mps 750 mmHg 85%
    06:00 -14°C° 0 mm 5 mps 750 mmHg 84%
    07:00 -15°C° 0 mm 5 mps 751 mmHg 84%
    08:00 -15°C° 0 mm 5 mps 751 mmHg 84%
    09:00 -15°C° 0 mm 6 mps 751 mmHg 83%
    10:00 -14°C° 0 mm 6 mps 751 mmHg 83%
    11:00 -12°C° 0 mm 6 mps 751 mmHg 83%
    12:00 -12°C° 0 mm 6 mps 751 mmHg 82%
    13:00 -11°C° 0 mm 6 mps 751 mmHg 82%
    14:00 -12°C° 0 mm 7 mps 751 mmHg 81%
    15:00 -12°C° 0 mm 7 mps 751 mmHg 81%
    16:00 -13°C° 0 mm 7 mps 751 mmHg 81%
    17:00 -13°C° 0 mm 7 mps 751 mmHg 81%
    18:00 -13°C° 0 mm 7 mps 751 mmHg 81%
    19:00 -14°C° 0 mm 7 mps 752 mmHg 81%
    20:00 -14°C° 0 mm 7 mps 752 mmHg 81%
    21:00 -14°C° 0 mm 7 mps 752 mmHg 81%
    22:00 -15°C° 0 mm 8 mps 752 mmHg 81%
    23:00 -15°C° 0 mm 8 mps 752 mmHg 81%
    Show more